Location: Colonia Mina de C?rbuni
(46.1667°N, 22.7167°E)
Time: 21:56:08
(UTC+00:00)

Tiros 1 - Pass Details

Date: 20 April 2024
Orbit: 624 x 657 km, 48.4° (Epoch: 20 May)

Event Time Altitude Azimuth Distance (km) Brightness Sun altitude
Rises 03:32:33 0° 289° (WNW) 2,911 10.0 -1.0°
Reaches altitude 10° 03:34:54 10° 286° (WNW) 1,999 9.2 -0.6°
Maximum altitude 03:39:26 65° 205° (SSW) 685 7.2 0.2°
Drops below altitude 10° 03:43:58 10° 124° (ESE) 1,990 10.3 0.9°
Sets 03:46:17 0° 121° (ESE) 2,895 11.2 1.3°
